Terug naar catalogus

STARLINK-1281

ActiefCommunicatieVLEO
NORAD 45370·PAYLOAD·🇺🇸 United States

Gelanceerd Mar 18, 2020 vanaf Cape Canaveral Space Force Station

Loading…

Volgende Passages (komende 24 uur)

TLE

VersSource: CelesTrak SupGP

Epoch: Sep 14, 2026, 13:29 UTC

1 45370C 20019L   26257.56229167  .00031622  00000+0  70124-3 0  2578
2 45370  53.1544   0.7692 0003479  29.4147  13.0492 15.43137791    18

Volg STARLINK-1281 in realtime met AllMySat

Download on the App Store